Location: ???
(32.3885°N, 98.2106°E)
Time: 13:22:36
(UTC+00:00)

STARLINK-36516 - Pass Details

Date: 17 January 2026
Orbit: 272 x 274 km, 43.0° (Epoch: 20 January)

Event Time Altitude Azimuth Distance (km) Brightness Sun altitude
Exits shadow 23:34:39 11° 347° (NNW) 926 3.5 -11.4°
Drops below altitude 10° 23:35:16 10° 3° (N) 980 3.8 -11.3°
Sets 23:38:01 0° 44° (NE) 1,774 5.6 -10.7°
